Showing default

SAOCOM 1-A, 43641

Orbit data source: Space-Track

SAOCOM 1-A, 43641 is a payload satellite owned by CONAE Tabanera (AR) in SSO that was launched on Mon, 08 Oct 2018 UTC via an FALCON 9 launch vehicle from the Air Force Western Test Range (AFWTR). Payload-class satellites include a variety of spacecraft equipped with specific instruments for various scientific and technological missions. These include communications satellites like Starlink; space stations such as the ISS; scientific satellites like the Hubble; Earth observation satellites from companies like Planet Labs, Umbra, and HawkEye 360; GPS; miniature CubeSats for education and research; and military/defense satellites.

Loading next visibility...
Identifier
43641, 2018-076A
Orbit
SSO
Country
Flag of UnknownUnknown / ARGN
Related business
Manufacturer
INVAP
Mission
Operational Civil Radar Imaging
Bus & Motor
SAOCOM, Unknown motor
Mass
3,000 kg wet, ~2,700 kg dry
Launch date (UTC)
2018-10-08 (7 years ago)
Launch vehicle
FALCON 9
Launch site
Air Force Western Test Range (AFWTR)
Object type
Payload
Rocket body
Debris
Shape & HBR
Cyl + 2 Pan, 5.0 m
Radar Cross Section
19.777 m², Large (>1 m²)

Expand to show TLE details & history
Last TLE update: 5 hours ago

TLE from 5 hours ago
0 SAOCOM 1-A
1 43641U 18076A   25258.63815013  .00000426  00000-0  60071-4 0  9999
2 43641  97.8897  84.3219 0001345  91.8345 268.3022 14.82152957375437
Epoch: 2025-09-15T15:18Z
TLE epoch observation values (Epoch: 2025-09-15T15:18:56.171Z)
Latitude
-0.00003°
Longitude
-140.25208°
Altitude
625.589 km
Speed
7.546 km/s
True Right ascension
05h 37m 17s
True Declination
0° 00' 00"
Sunlit
Object was in daylight at epoch
Visualization orbit readout
Latitude
Unknown
Longitude
Unknown
Altitude
Unknown
Speed
Unknown
Apparent Right ascension
Unknown
Apparent Declination
Unknown
Sunlit
N/A
Visualization observer readout
Local Sidereal Time
13:00:11
Azimuth
Unknown
Elevation
Unknown
Doppler factor
Unknown
Orbital elements
Apogee altitude
620.515 km
Perigee altitude
618.633 km
Semi-major axis
6,997.711 km
Eccentricity
0.00013
Inclination
97.8897°
RAAN
84.3219°
Arg. of periapsis
91.8345°
True anomaly
268.28679°
Mean anomaly
268.3022°
Eccentric anomaly
268.2945°
Mean motion
3.70774 °/min
Orbital period
97.09 mins
BSTAR
0.000060071
Loading maneuver chart data...
Computing Atmospheric mass density...
Loading historical data...
Loading historical data...
Loading historical data...
Loading historical data...
Loading historical data...
Loading historical data...
Loading historical data...
Other satellites on launch #76 in the year 2018 (2018-10-08 UTC)

Documentation

Showing up to 5 results
|